THY523 DRRN-LTFM

Flight info

Callsign THY523
Flight time N/A
Altitude 41000
Route DAMNA1E DAMNA UY212 EREBO/N0483F400 UA604 TMS/N0481F410 UB727 IMN M600 ZAW/N0485F400 M600 SARKI/N0484F410 DCT VESOD/N0479F400 DCT INROF DCT RUTOM/N0479F410 DCT PEREN UN644 DIGTI UT162 DRAMO
Aircraft A359/H-SDE2E3GHIJ3J4J5LM1ORWXY/LB1D1

Departure

Time 2026-04-17 10:48
Airport Diori Hamani International Airport (DRRN)

Arrival

Time N/A
Airport İstanbul Airport (LTFM)
Time Latitude Longitude Altitude Speed Heading
2026-04-17 10:27 13.47814 2.17917 746 ft 0 kts 143°
2026-04-17 10:38 13.47830 2.17904 742 ft 4 kts 143°
2026-04-17 10:38 13.47851 2.17892 746 ft 4 kts 184°
2026-04-17 10:38 13.47867 2.17902 742 ft 4 kts 263°
2026-04-17 10:38 13.47868 2.17923 742 ft 4 kts 267°
2026-04-17 10:39 13.47869 2.17943 742 ft 1 kts 267°
2026-04-17 10:40 13.47865 2.17868 742 ft 23 kts 266°
2026-04-17 10:41 13.47867 2.17682 747 ft 13 kts 294°
2026-04-17 10:41 13.47903 2.17659 746 ft 17 kts 340°
2026-04-17 10:41 13.48086 2.17641 748 ft 29 kts 357°
2026-04-17 10:41 13.48186 2.17536 748 ft 23 kts 270°
2026-04-17 10:42 13.48178 2.17330 749 ft 31 kts 267°
2026-04-17 10:42 13.48169 2.17127 750 ft 27 kts 267°
2026-04-17 10:42 13.48135 2.16988 750 ft 4 kts 263°
2026-04-17 10:42 13.48148 2.16981 750 ft 2 kts 353°
2026-04-17 10:43 13.48163 2.17017 751 ft 16 kts 78°
2026-04-17 10:43 13.48165 2.17048 752 ft 0 kts 86°
2026-04-17 10:47 13.48168 2.17159 750 ft 48 kts 88°
2026-04-17 10:47 13.48199 2.17778 743 ft 123 kts 87°
2026-04-17 10:47 13.48247 2.18869 893 ft 170 kts 83°
2026-04-17 10:48 13.48491 2.20062 1597 ft 170 kts 57°
2026-04-17 10:48 13.49098 2.21078 2347 ft 170 kts 57°
2026-04-17 10:48 13.49784 2.22201 2666 ft 200 kts 57°
2026-04-17 10:48 13.50554 2.23514 2951 ft 230 kts 59°
2026-04-17 10:49 13.51406 2.25016 3329 ft 254 kts 60°
2026-04-17 10:49 13.52303 2.26635 3987 ft 267 kts 59°
2026-04-17 10:49 13.53243 2.28331 4679 ft 279 kts 59°
2026-04-17 10:49 13.54203 2.30067 5412 ft 285 kts 60°
2026-04-17 10:50 13.55242 2.31843 6273 ft 288 kts 56°
2026-04-17 10:50 13.56345 2.33585 7042 ft 293 kts 56°
2026-04-17 10:50 13.57463 2.35348 7884 ft 296 kts 56°
2026-04-17 10:50 13.58589 2.37139 8756 ft 300 kts 57°
2026-04-17 10:51 13.59723 2.38953 9671 ft 304 kts 57°
2026-04-17 10:51 13.60878 2.40806 10376 ft 316 kts 57°
2026-04-17 10:51 13.62103 2.42773 10728 ft 337 kts 57°
2026-04-17 10:51 13.63393 2.44846 11338 ft 348 kts 56°
2026-04-17 10:52 13.64703 2.46954 12144 ft 351 kts 56°
2026-04-17 10:52 13.66019 2.49074 13024 ft 353 kts 56°
2026-04-17 10:52 13.67343 2.51208 13835 ft 356 kts 55°
2026-04-17 10:52 13.68683 2.53366 14494 ft 361 kts 56°
2026-04-17 10:53 13.70045 2.55561 15132 ft 367 kts 56°
2026-04-17 10:53 13.71426 2.57787 15791 ft 372 kts 56°
2026-04-17 10:53 13.72824 2.60042 16456 ft 376 kts 56°
2026-04-17 10:53 13.74221 2.62296 17096 ft 381 kts 56°
2026-04-17 10:54 13.75674 2.64641 17776 ft 386 kts 56°
2026-04-17 10:54 13.77126 2.66983 18383 ft 391 kts 56°
2026-04-17 10:54 13.78577 2.69326 18916 ft 397 kts 57°
2026-04-17 10:54 13.80069 2.71735 19481 ft 402 kts 57°
2026-04-17 10:55 13.81579 2.74175 20088 ft 407 kts 57°
2026-04-17 10:55 13.83106 2.76643 20688 ft 412 kts 57°
2026-04-17 10:55 13.84653 2.79145 21276 ft 417 kts 57°
2026-04-17 10:55 13.86221 2.81680 21818 ft 423 kts 57°
2026-04-17 10:56 13.87811 2.84250 22417 ft 428 kts 57°
2026-04-17 10:56 13.89419 2.86852 23003 ft 433 kts 57°
2026-04-17 10:56 13.91046 2.89486 23555 ft 439 kts 57°
2026-04-17 10:56 13.92691 2.92149 24059 ft 443 kts 57°
2026-04-17 10:57 13.94350 2.94835 24610 ft 447 kts 57°
2026-04-17 10:57 13.96027 2.97552 25131 ft 451 kts 56°
2026-04-17 10:57 13.97717 3.00291 25686 ft 456 kts 56°
2026-04-17 10:57 13.99424 3.03058 26225 ft 460 kts 56°
2026-04-17 10:58 14.01148 3.05852 26759 ft 464 kts 56°
2026-04-17 10:58 14.02886 3.08671 27269 ft 469 kts 56°
2026-04-17 10:58 14.04645 3.11525 27786 ft 473 kts 55°
2026-04-17 10:58 14.06414 3.14396 28319 ft 477 kts 55°
2026-04-17 10:59 14.08201 3.17298 28824 ft 482 kts 55°
2026-04-17 10:59 14.10003 3.20224 29326 ft 486 kts 55°
2026-04-17 10:59 14.11822 3.23179 29812 ft 490 kts 54°
2026-04-17 10:59 14.13654 3.26158 30223 ft 494 kts 54°
2026-04-17 11:00 14.15498 3.29156 30650 ft 497 kts 54°
2026-04-17 11:00 14.17356 3.32178 31076 ft 501 kts 54°
2026-04-17 11:00 14.19225 3.35220 31479 ft 504 kts 54°
2026-04-17 11:00 14.21109 3.38286 31841 ft 509 kts 54°
2026-04-17 11:01 14.23007 3.41377 32216 ft 512 kts 54°
2026-04-17 11:01 14.24918 3.44491 32624 ft 515 kts 54°
2026-04-17 11:01 14.26836 3.47617 33000 ft 518 kts 54°
2026-04-17 11:01 14.28770 3.50770 33369 ft 522 kts 54°
2026-04-17 11:02 14.30714 3.53940 33731 ft 525 kts 54°
2026-04-17 11:02 14.32669 3.57131 34027 ft 528 kts 54°
2026-04-17 11:02 14.34636 3.60342 34320 ft 531 kts 54°
2026-04-17 11:02 14.36607 3.63562 34717 ft 531 kts 54°
2026-04-17 11:03 14.38578 3.66783 35150 ft 530 kts 54°
2026-04-17 11:03 14.40544 3.69997 35547 ft 530 kts 54°
2026-04-17 11:03 14.42511 3.73213 35910 ft 530 kts 55°
2026-04-17 11:03 14.44478 3.76430 36295 ft 531 kts 55°
2026-04-17 11:04 14.46446 3.79650 36652 ft 531 kts 55°
2026-04-17 11:04 14.48416 3.82874 36996 ft 531 kts 55°
2026-04-17 11:04 14.50386 3.86100 37345 ft 532 kts 55°
2026-04-17 11:04 14.52358 3.89331 37682 ft 532 kts 56°
2026-04-17 11:05 14.54326 3.92557 38041 ft 532 kts 56°
2026-04-17 11:05 14.56296 3.95787 38379 ft 532 kts 56°
2026-04-17 11:05 14.58266 3.99018 38660 ft 532 kts 56°
2026-04-17 11:05 14.60236 4.02251 38950 ft 531 kts 56°
2026-04-17 11:06 14.62201 4.05477 39215 ft 531 kts 56°
2026-04-17 11:06 14.64166 4.08703 39475 ft 531 kts 56°
2026-04-17 11:06 14.66130 4.11929 39737 ft 530 kts 56°
2026-04-17 11:06 14.68089 4.15150 40018 ft 530 kts 56°
2026-04-17 11:07 14.70047 4.18369 40282 ft 529 kts 56°
2026-04-17 11:07 14.71980 4.21548 40523 ft 529 kts 57°
2026-04-17 11:07 14.73933 4.24762 40730 ft 529 kts 57°
2026-04-17 11:08 14.77879 4.31258 40766 ft 539 kts 57°
2026-04-17 11:08 14.81888 4.37864 40766 ft 544 kts 57°
2026-04-17 11:09 14.85899 4.44480 40767 ft 543 kts 57°
2026-04-17 11:09 14.89907 4.51096 40770 ft 543 kts 57°
2026-04-17 11:10 14.94687 4.57076 40770 ft 538 kts 37°
2026-04-17 11:10 14.97721 4.59294 40761 ft 531 kts 25°
2026-04-17 11:10 15.04434 4.62309 40769 ft 525 kts 15°
2026-04-17 11:11 15.11300 4.64880 40764 ft 525 kts 14°
2026-04-17 11:11 15.18173 4.67414 40767 ft 525 kts 14°
2026-04-17 11:12 15.25042 4.69991 40781 ft 525 kts 14°
2026-04-17 11:12 15.31920 4.72600 40762 ft 527 kts 14°
2026-04-17 11:13 15.38801 4.75219 40763 ft 527 kts 14°
2026-04-17 11:13 15.45687 4.77841 40763 ft 527 kts 14°
2026-04-17 11:14 15.52569 4.80462 40763 ft 527 kts 14°
2026-04-17 11:14 15.59458 4.83086 40785 ft 527 kts 14°
2026-04-17 11:15 15.66345 4.85712 40766 ft 528 kts 14°
2026-04-17 11:15 15.73248 4.88345 40767 ft 528 kts 14°
2026-04-17 11:16 15.80151 4.90981 40766 ft 528 kts 14°
2026-04-17 11:16 15.87049 4.93617 40773 ft 528 kts 14°
2026-04-17 11:17 15.92786 4.95810 40761 ft 528 kts 14°
2026-04-17 11:17 15.99698 4.98454 40770 ft 530 kts 14°
2026-04-17 11:18 16.06624 5.01105 40769 ft 531 kts 14°
2026-04-17 11:18 16.13558 5.03763 40767 ft 531 kts 14°
2026-04-17 11:19 16.20491 5.06422 40768 ft 531 kts 14°
2026-04-17 11:19 16.27424 5.09082 40768 ft 531 kts 14°
2026-04-17 11:20 16.34360 5.11746 40774 ft 532 kts 14°
2026-04-17 11:20 16.41311 5.14417 40775 ft 533 kts 14°
2026-04-17 11:21 16.48269 5.17093 40777 ft 533 kts 14°
2026-04-17 11:21 16.55217 5.19768 40777 ft 533 kts 14°
2026-04-17 11:22 16.62172 5.22447 40774 ft 533 kts 14°
2026-04-17 11:22 16.69125 5.25128 40768 ft 533 kts 14°
2026-04-17 11:23 16.76094 5.27815 40772 ft 534 kts 14°
2026-04-17 11:23 16.83060 5.30505 40782 ft 534 kts 14°
2026-04-17 11:24 16.90023 5.33196 40779 ft 534 kts 14°
2026-04-17 11:24 16.96990 5.35890 40779 ft 534 kts 14°
2026-04-17 11:25 17.03969 5.38591 40777 ft 535 kts 14°
2026-04-17 11:25 17.10909 5.41279 40777 ft 536 kts 14°
2026-04-17 11:26 17.17900 5.43989 40785 ft 536 kts 14°
2026-04-17 11:26 17.24894 5.46703 40785 ft 536 kts 14°
2026-04-17 11:27 17.31880 5.49416 40785 ft 536 kts 14°
2026-04-17 11:27 17.38872 5.52132 40785 ft 537 kts 14°
2026-04-17 11:28 17.45878 5.54856 40788 ft 537 kts 14°
2026-04-17 11:28 17.52880 5.57582 40790 ft 537 kts 14°
2026-04-17 11:29 17.59882 5.60310 40790 ft 537 kts 14°
2026-04-17 11:29 17.66888 5.63042 40819 ft 537 kts 13°
2026-04-17 11:30 17.73891 5.65774 40796 ft 537 kts 13°
2026-04-17 11:30 17.80889 5.68507 40796 ft 537 kts 13°
2026-04-17 11:31 17.87891 5.71243 40789 ft 537 kts 13°
2026-04-17 11:31 17.94898 5.73984 40796 ft 538 kts 13°
2026-04-17 11:32 18.01910 5.76729 40796 ft 538 kts 13°
2026-04-17 11:32 18.08930 5.79480 40799 ft 538 kts 13°
2026-04-17 11:33 18.15944 5.82232 40796 ft 538 kts 13°
2026-04-17 11:33 18.22961 5.84986 40796 ft 538 kts 13°
2026-04-17 11:34 18.29969 5.87740 40796 ft 538 kts 13°
2026-04-17 11:34 18.36983 5.90498 40800 ft 538 kts 13°
2026-04-17 11:35 18.43986 5.93255 40799 ft 537 kts 13°
2026-04-17 11:35 18.50935 5.95991 40802 ft 537 kts 13°
2026-04-17 11:36 18.57935 5.98751 40799 ft 537 kts 13°
2026-04-17 11:36 18.64929 6.01511 40804 ft 537 kts 13°
2026-04-17 11:37 18.71923 6.04273 40800 ft 536 kts 13°
2026-04-17 11:37 18.78906 6.07034 40807 ft 536 kts 13°
2026-04-17 11:38 18.85884 6.09795 40800 ft 536 kts 13°
2026-04-17 11:38 18.92865 6.12558 40804 ft 536 kts 13°
2026-04-17 11:39 18.99855 6.15329 40819 ft 537 kts 13°
2026-04-17 11:39 19.06841 6.18101 40809 ft 536 kts 13°
2026-04-17 11:40 19.13821 6.20873 40811 ft 536 kts 13°
2026-04-17 11:40 19.20798 6.23645 40817 ft 535 kts 13°
2026-04-17 11:41 19.27771 6.26419 40815 ft 535 kts 13°
2026-04-17 11:41 19.34744 6.29195 40820 ft 535 kts 13°
2026-04-17 11:42 19.41713 6.31973 40821 ft 535 kts 13°
2026-04-17 11:42 19.48677 6.34750 40823 ft 535 kts 13°
2026-04-17 11:43 19.55635 6.37528 40829 ft 534 kts 13°
2026-04-17 11:43 19.62590 6.40307 40829 ft 534 kts 13°
2026-04-17 11:44 19.69547 6.43090 40857 ft 534 kts 13°
2026-04-17 11:44 19.76452 6.45855 40834 ft 534 kts 13°
2026-04-17 11:45 19.83401 6.48639 40839 ft 534 kts 13°
2026-04-17 11:45 19.90362 6.51430 40840 ft 535 kts 13°
2026-04-17 11:46 19.97327 6.54227 40836 ft 535 kts 13°
2026-04-17 11:46 20.03695 6.56778 40846 ft 533 kts 12°
2026-04-17 11:47 20.07226 6.57841 40841 ft 522 kts
2026-04-17 11:47 20.10788 6.58316 40846 ft 509 kts 353°
2026-04-17 11:47 20.14274 6.58167 40842 ft 494 kts 342°
2026-04-17 11:47 20.17586 6.57417 40845 ft 480 kts 333°
2026-04-17 11:48 20.23815 6.55023 40847 ft 474 kts 328°
2026-04-17 11:48 20.29926 6.52396 40851 ft 473 kts 328°
2026-04-17 11:49 20.36033 6.49762 40886 ft 474 kts 328°
2026-04-17 11:49 20.42107 6.47179 40856 ft 473 kts 328°
2026-04-17 11:50 20.48225 6.44595 40856 ft 473 kts 328°
2026-04-17 11:50 20.54342 6.42012 40862 ft 472 kts 328°
2026-04-17 11:51 20.60450 6.39428 40861 ft 472 kts 328°
2026-04-17 11:51 20.66560 6.36841 40867 ft 472 kts 328°
2026-04-17 11:52 20.72670 6.34252 40867 ft 472 kts 328°
2026-04-17 11:52 20.78773 6.31663 40869 ft 472 kts 328°
2026-04-17 11:53 20.84882 6.29070 40871 ft 472 kts 328°
2026-04-17 11:53 20.90992 6.26474 40873 ft 472 kts 328°
2026-04-17 11:54 20.97097 6.23878 40873 ft 472 kts 328°
2026-04-17 11:54 21.03199 6.21280 40913 ft 472 kts 328°
2026-04-17 11:55 21.09304 6.18679 40876 ft 472 kts 328°
2026-04-17 11:55 21.15405 6.16078 40872 ft 472 kts 328°
2026-04-17 11:56 21.21505 6.13475 40882 ft 472 kts 328°
2026-04-17 11:56 21.27607 6.10868 40884 ft 472 kts 328°
2026-04-17 11:57 21.33664 6.08279 40892 ft 472 kts 328°
2026-04-17 11:57 21.39754 6.05673 40888 ft 471 kts 328°
2026-04-17 11:58 21.45844 6.03065 40887 ft 471 kts 328°
2026-04-17 11:58 21.51924 6.00458 40884 ft 471 kts 328°
2026-04-17 11:59 21.58013 5.97846 40894 ft 471 kts 328°
2026-04-17 11:59 21.64093 5.95234 40888 ft 471 kts 328°
2026-04-17 12:00 21.70176 5.92619 40906 ft 471 kts 328°
2026-04-17 12:00 21.76259 5.90002 40898 ft 471 kts 328°
2026-04-17 12:01 21.82337 5.87385 40894 ft 471 kts 328°
2026-04-17 12:01 21.88415 5.84765 40894 ft 470 kts 328°
2026-04-17 12:02 21.94492 5.82143 40895 ft 470 kts 328°
2026-04-17 12:02 22.00567 5.79519 40903 ft 470 kts 328°
2026-04-17 12:03 22.06641 5.76894 40900 ft 470 kts 328°
2026-04-17 12:03 22.12717 5.74265 40908 ft 470 kts 328°
2026-04-17 12:04 22.18790 5.71636 40904 ft 470 kts 328°
2026-04-17 12:04 22.24865 5.69002 40910 ft 470 kts 328°
2026-04-17 12:05 22.30938 5.66368 40910 ft 470 kts 328°
2026-04-17 12:05 22.37005 5.63733 40945 ft 470 kts 329°
2026-04-17 12:06 22.42049 5.61541 40912 ft 470 kts 329°
2026-04-17 12:06 22.48112 5.58904 40911 ft 470 kts 329°
2026-04-17 12:07 22.54177 5.56263 40960 ft 470 kts 329°
2026-04-17 12:07 22.60238 5.53621 40997 ft 470 kts 329°
2026-04-17 12:08 22.66300 5.50977 41037 ft 470 kts 329°
2026-04-17 12:08 22.72454 5.48523 41079 ft 479 kts 336°
2026-04-17 12:09 22.75760 5.47843 41075 ft 490 kts 345°
2026-04-17 12:09 22.79203 5.47728 41078 ft 502 kts 355°
2026-04-17 12:09 22.82696 5.48264 41075 ft 515 kts
2026-04-17 12:09 22.86132 5.49498 41073 ft 527 kts 17°
2026-04-17 12:10 22.89371 5.51423 41072 ft 536 kts 28°
2026-04-17 12:10 22.92463 5.53714 41053 ft 539 kts 30°
2026-04-17 12:10 22.98510 5.58562 41011 ft 541 kts 32°
2026-04-17 12:11 23.04532 5.63468 40946 ft 541 kts 31°
2026-04-17 12:12 23.13593 5.70741 40955 ft 540 kts 31°
2026-04-17 12:12 23.19644 5.75566 40956 ft 540 kts 31°
2026-04-17 12:13 23.25701 5.80396 40967 ft 540 kts 31°
2026-04-17 12:13 23.31754 5.85235 40964 ft 540 kts 31°
2026-04-17 12:14 23.37804 5.90079 40963 ft 539 kts 31°
2026-04-17 12:14 23.43843 5.94919 40964 ft 539 kts 31°
2026-04-17 12:15 23.49878 5.99761 40961 ft 539 kts 31°
2026-04-17 12:15 23.55876 6.04579 40949 ft 539 kts 31°
2026-04-17 12:16 23.61908 6.09429 40971 ft 539 kts 31°
2026-04-17 12:16 23.67944 6.14289 40950 ft 539 kts 31°
2026-04-17 12:17 23.73973 6.19149 40949 ft 539 kts 31°
2026-04-17 12:17 23.80001 6.24015 40946 ft 538 kts 31°
2026-04-17 12:18 23.86022 6.28880 40946 ft 539 kts 31°
2026-04-17 12:18 23.92052 6.33756 40935 ft 539 kts 31°
2026-04-17 12:19 23.98069 6.38629 40943 ft 538 kts 31°
2026-04-17 12:19 24.04076 6.43501 40943 ft 537 kts 31°